Location: Newark
(18.8198°N, 82.1672°E)
Time: 17:16:46
(UTC+00:00)

OTV 5 (USA 277) - Pass Details

Date: 25 August 2019
Orbit: 295 x 339 km, 54.5° (Epoch: 08 September)

Event Time Altitude Azimuth Distance (km) Brightness Sun altitude
Rises 13:31:35 0° 252° (WSW) 2,021 ? -10.0°
Reaches altitude 10° 13:34:43 10° 294° (WNW) 1,183 ? -10.7°
Maximum altitude 13:35:25 11° 310° (NW) 1,141 ? -10.8°
Drops below altitude 10° 13:36:08 10° 325° (NW) 1,178 ? -11.0°
Sets 13:39:14 0° 8° (N) 1,991 ? -11.7°
